Weather reports worldwide

Advertisment
Fehmarn, Germany (10055): temperature & dewpoint: 12.10.2018 19:00:00 - 18.10.2018 19:00:00 (CEST)Fehmarn, Germany (10055): temperature 5cm & temperature -5cm: 12.10.2018 19:00:00 - 18.10.2018 19:00:00 (CEST)Fehmarn, Germany (10055): temperature -20cm & temperature -100cm: 12.10.2018 19:00:00 - 18.10.2018 19:00:00 (CEST)Fehmarn, Germany (10055): wind speed & gusts: 12.10.2018 19:00:00 - 18.10.2018 19:00:00 (CEST)Fehmarn, Germany (10055): wind direction: 12.10.2018 19:00:00 - 18.10.2018 19:00:00 (CEST)Fehmarn, Germany (10055): reduced air pressure: 12.10.2018 19:00:00 - 18.10.2018 19:00:00 (CEST)Fehmarn, Germany (10055): visibility: 12.10.2018 19:00:00 - 18.10.2018 19:00:00 (CEST)Fehmarn, Germany (10055): sunshine duration: 12.10.2018 19:00:00 - 18.10.2018 19:00:00 (CEST)Fehmarn, Germany (10055): precipitation: 12.10.2018 19:00:00 - 18.10.2018 19:00:00 (CEST)
Date & Time tt [°C] td [°C] tt 5cm [°C] tt -5cm [°C] tt -20cm [°C] tt -100cm [°C] ff [km/h] ff [kn] fx [km/h] fx [kn] dd ppp [hPa] vv [km] sd [min] rr [mm]
18.10.2018 19:00:00 12,3 6,7 - - - - 22 12 29 16 N 1024,7 70 0 -
18.10.2018 18:00:00 12,5 6,5 11,1 13,9 14,0 14,9 24 13 34 18 N 1024,1 70 43 0,0
18.10.2018 17:00:00 13,1 6,5 12,9 14,8 14,0 14,9 25 14 34 18 N 1023,9 29 60 0,0
18.10.2018 16:00:00 13,7 6,6 14,0 15,5 14,0 14,9 25 14 36 19 N 1023,7 17 60 0,0
18.10.2018 15:00:00 14,0 6,8 15,1 16,1 13,8 14,9 27 14 41 22 N 1023,3 18 60 0,0
18.10.2018 14:00:00 14,0 7,7 15,4 16,2 13,6 14,9 32 17 41 22 N 1023,4 17 60 0,0
18.10.2018 13:00:00 13,5 9,1 14,7 15,4 13,5 14,9 31 17 40 22 N 1023,3 28 15 0,0
18.10.2018 12:00:00 13,2 10,0 13,9 14,8 13,5 14,9 29 16 39 21 N 1023,0 37 0 0,0
18.10.2018 11:00:00 12,8 11,8 12,8 14,4 13,5 14,9 28 15 42 23 N 1022,4 8 11 0,0
18.10.2018 10:00:00 13,4 12,1 13,1 14,1 13,5 14,9 18 10 25 13 NNW 1021,8 6 0 0,0
18.10.2018 09:00:00 13,4 12,0 12,8 13,7 13,6 14,9 19 11 33 18 NNW 1021,3 7 0 0,0
18.10.2018 08:00:00 13,4 11,8 12,8 13,8 13,6 14,8 30 16 36 20 NW 1020,7 8 0 0,0
18.10.2018 07:00:00 13,5 12,5 13,1 14,0 13,7 14,8 29 16 34 19 NW 1020,3 6 0 0,0
18.10.2018 06:00:00 13,6 13,5 13,4 14,1 13,7 14,8 16 9 25 13 NW 1020,0 3,9 0 0,0
18.10.2018 05:00:00 13,3 13,3 13,2 14,1 13,8 14,8 18 10 27 15 NW 1019,9 1,6 0 0,0
18.10.2018 04:00:00 13,2 13,2 13,2 14,1 13,8 14,8 23 12 30 16 NW 1019,9 0,9 0 0,0
18.10.2018 03:00:00 13,1 13,1 13,0 14,1 13,9 14,8 23 12 28 15 WNW 1019,9 0,2 0 0,0
18.10.2018 02:00:00 13,2 13,1 13,2 14,1 14,0 14,8 24 13 29 15 WNW 1019,8 0,1 0 0,0
18.10.2018 01:00:00 14,1 13,5 13,7 13,9 14,1 14,8 22 12 26 14 NW 1019,7 1,6 0 0,0
18.10.2018 00:00:00 14,4 13,6 13,2 13,8 14,3 14,8 13 7 16 9 W 1019,7 2,0 0 0,0
17.10.2018 23:00:00 13,6 12,5 10,7 13,9 14,5 14,8 5 3 12 7 SSW 1019,5 2,5 0 0,0
17.10.2018 22:00:00 13,8 11,9 12,5 14,3 14,7 14,8 10 5 15 8 S 1019,4 3,4 0 0,0
17.10.2018 21:00:00 13,8 11,8 12,0 14,6 15,0 14,8 8 4 13 7 SSE 1019,2 3,6 0 0,0
17.10.2018 20:00:00 13,9 11,0 12,2 15,2 15,2 14,8 10 5 13 7 SE 1019,0 4,8 0 0,0
17.10.2018 19:00:00 15,1 11,5 12,7 16,1 15,4 14,8 9 5 13 7 SE 1018,7 6 0 0,0
17.10.2018 18:00:00 17,5 12,4 15,8 17,4 15,4 14,8 9 5 14 8 SE 1018,5 10 12 0,0
17.10.2018 17:00:00 19,0 13,7 18,5 18,5 15,3 14,8 10 5 15 8 ESE 1018,5 10 53 0,0
17.10.2018 16:00:00 18,2 13,7 18,9 19,2 15,0 14,8 9 5 15 8 E 1018,5 11 60 0,0
17.10.2018 15:00:00 18,6 13,4 20,0 20,2 14,6 14,8 8 4 12 7 ENE 1018,8 12 57 0,0
17.10.2018 14:00:00 20,5 13,3 22,2 20,6 14,2 14,8 6 3 16 9 SSW 1019,1 12 50 0,0
17.10.2018 13:00:00 20,4 14,0 23,7 19,8 13,7 14,8 11 6 20 11 SSE 1019,1 11 60 0,0
17.10.2018 12:00:00 18,6 14,2 21,2 18,3 13,2 14,8 12 6 19 11 SSE 1019,5 6 60 0,0
17.10.2018 11:00:00 17,7 14,5 20,2 15,9 13,0 14,8 13 7 17 9 SSE 1019,5 4,8 60 0,0
17.10.2018 10:00:00 16,3 14,5 17,0 14,7 12,9 14,8 12 7 16 9 SSE 1019,3 4,1 60 0,0
17.10.2018 09:00:00 13,6 13,6 14,3 13,1 12,9 14,8 8 4 12 7 SSE 1019,2 2,3 13 0,0
17.10.2018 08:00:00 11,6 11,6 10,9 12,2 13,0 14,8 8 4 12 6 SSE 1019,2 0,2 0 0,0
17.10.2018 07:00:00 11,2 11,2 10,2 12,2 13,1 14,8 7 4 12 6 SSE 1019,0 0,7 0 0,0
17.10.2018 06:00:00 10,7 10,7 9,0 12,1 13,3 14,8 10 6 13 7 SE 1018,9 0,2 0 0,0
17.10.2018 05:00:00 10,8 10,8 9,4 12,2 13,5 14,8 8 4 9 5 SSE 1018,8 0,1 0 0,0
17.10.2018 04:00:00 10,1 10,1 9,0 12,5 13,7 14,8 8 4 9 5 SE 1018,9 0,1 0 0,0
17.10.2018 03:00:00 11,4 11,2 9,0 12,9 13,9 14,8 6 3 9 5 SSE 1019,0 0,1 0 0,0
17.10.2018 02:00:00 12,6 12,5 10,0 13,2 14,1 14,8 6 3 8 5 SSW 1019,1 0,1 0 0,0
17.10.2018 01:00:00 13,7 13,4 10,9 13,7 14,2 14,8 4 2 6 4 SSW 1019,2 1,9 0 0,0
17.10.2018 00:00:00 13,8 13,2 12,7 14,1 14,4 14,8 6 4 8 5 S 1019,4 2,5 0 0,0
16.10.2018 23:00:00 14,3 13,7 12,7 14,7 14,6 14,8 7 4 14 7 W 1019,5 2,4 0 0,0
16.10.2018 22:00:00 14,9 13,9 14,2 15,0 14,7 14,8 11 6 14 7 W 1019,7 3,0 0 0,0
16.10.2018 21:00:00 14,9 13,6 14,2 15,1 14,9 14,8 9 5 11 6 WNW 1019,6 3,5 0 0,0
16.10.2018 20:00:00 14,1 13,1 11,2 15,2 15,1 14,8 1 1 9 5 NE 1019,4 3,1 0 0,0
16.10.2018 19:00:00 15,0 13,5 13,5 16,1 15,2 14,8 8 4 10 5 WNW 1018,9 4,7 0 0,0
16.10.2018 18:00:00 16,1 13,9 14,9 17,4 15,2 14,8 9 5 11 6 W 1018,4 6 6 0,0
16.10.2018 17:00:00 19,8 13,9 19,7 18,6 15,1 14,8 6 3 11 6 SSW 1018,2 14 28 0,0
16.10.2018 16:00:00 19,0 13,7 19,7 19,0 14,9 14,8 5 3 8 4 ENE 1018,1 9 10 0,0
16.10.2018 15:00:00 18,4 13,2 19,5 19,4 14,6 14,8 3 1 5 3 W 1018,1 8 1 0,0
16.10.2018 14:00:00 17,3 12,6 19,2 19,4 14,2 14,8 4 2 10 5 NW 1018,1 10 23 0,0
16.10.2018 13:00:00 18,2 12,6 21,2 19,1 13,8 14,8 9 5 12 6 W 1018,2 8 57 0,0
16.10.2018 12:00:00 18,1 12,6 21,5 17,6 13,4 14,8 8 5 15 8 SW 1018,0 11 60 0,0
16.10.2018 11:00:00 16,5 12,3 18,7 15,6 13,3 14,8 10 5 19 10 SW 1018,0 10 60 0,0
16.10.2018 10:00:00 16,7 12,0 18,7 14,8 13,2 14,7 12 6 18 10 SW 1017,6 10 60 0,0
16.10.2018 09:00:00 15,6 11,3 15,6 13,5 13,2 14,7 8 4 13 7 S 1016,9 13 20 0,0
16.10.2018 08:00:00 13,6 10,9 13,0 13,3 13,3 14,7 9 5 12 6 S 1016,5 12 0 0,0
16.10.2018 07:00:00 14,6 10,4 13,4 13,4 13,3 14,7 8 5 14 7 SSE 1016,0 15 0 0,0
16.10.2018 06:00:00 16,0 10,3 13,7 13,3 13,4 14,7 8 5 16 9 SSW 1015,9 21 0 0,0
16.10.2018 05:00:00 16,1 10,4 14,7 13,3 13,5 14,7 12 6 16 9 S 1015,7 20 0 0,0
16.10.2018 04:00:00 16,1 10,3 13,5 13,1 13,6 14,7 10 6 14 8 SSW 1015,5 24 0 0,0
16.10.2018 03:00:00 15,0 10,2 13,0 13,2 13,8 14,7 12 6 13 7 S 1015,4 18 0 0,0
16.10.2018 02:00:00 14,9 10,0 12,9 13,3 13,9 14,7 10 6 13 7 S 1015,3 21 0 0,0
16.10.2018 01:00:00 14,7 10,1 12,7 13,6 14,1 14,7 10 5 16 9 S 1015,0 21 0 0,0
16.10.2018 00:00:00 15,1 10,2 13,5 13,8 14,2 14,7 13 7 16 9 S 1015,0 21 0 0,0
15.10.2018 23:00:00 15,8 10,4 14,2 14,0 14,4 14,7 14 8 19 10 SSE 1014,9 24 0 0,0
15.10.2018 22:00:00 15,7 10,4 13,5 14,4 14,6 14,7 10 5 13 7 S 1014,8 20 0 0,0
15.10.2018 21:00:00 15,8 10,7 14,0 14,7 14,8 14,7 10 6 13 7 SSE 1014,6 24 0 0,0
15.10.2018 20:00:00 15,5 10,4 13,3 15,2 15,0 14,7 8 4 13 7 SSE 1014,3 23 0 0,0
15.10.2018 19:00:00 16,1 10,3 14,1 16,1 15,2 14,7 9 5 18 10 SSE 1014,0 24 0 0,0
15.10.2018 18:00:00 18,2 10,0 17,0 17,3 15,1 14,7 14 8 23 12 SSE 1013,6 25 49 0,0
15.10.2018 17:00:00 20,3 9,5 19,9 18,2 15,0 14,7 13 7 24 13 SSE 1013,2 26 60 0,0
15.10.2018 16:00:00 20,8 9,6 21,3 19,1 14,7 14,7 14 7 21 11 SE 1013,1 22 60 0,0
15.10.2018 15:00:00 21,2 10,2 22,6 19,8 14,3 14,7 9 5 15 8 SE 1013,0 22 60 0,0
15.10.2018 14:00:00 20,9 10,6 23,0 19,6 13,8 14,7 9 5 16 9 SE 1013,4 25 60 0,0
15.10.2018 13:00:00 19,4 10,2 21,6 18,5 13,4 14,7 8 5 19 11 SSE 1013,4 18 60 0,0
15.10.2018 12:00:00 17,7 10,5 20,1 16,9 13,1 14,7 12 6 22 12 S 1013,5 15 59 0,0
15.10.2018 11:00:00 16,7 10,6 18,2 14,7 13,0 14,7 16 9 27 14 SSE 1013,2 19 60 0,0
15.10.2018 10:00:00 15,2 10,6 15,9 13,7 13,0 14,7 19 10 29 16 SSE 1013,2 19 60 0,0
15.10.2018 09:00:00 13,6 10,3 13,7 12,6 13,1 14,6 19 10 28 15 SSE 1012,6 13 26 0,0
15.10.2018 08:00:00 12,8 10,3 11,7 12,4 13,2 14,6 19 10 25 14 SSE 1012,5 11 0 0,0
15.10.2018 07:00:00 13,1 9,9 11,7 12,6 13,3 14,6 16 9 28 15 SSE 1012,3 13 0 0,0
15.10.2018 06:00:00 13,5 9,6 12,3 12,8 13,5 14,6 18 10 26 14 SSE 1012,2 17 0 0,0
15.10.2018 05:00:00 13,8 9,9 12,5 13,0 13,6 14,6 17 9 27 14 SSE 1012,0 15 0 0,0
15.10.2018 04:00:00 14,5 9,4 13,2 13,2 13,7 14,6 21 11 31 17 SSE 1012,0 19 0 0,0
15.10.2018 03:00:00 14,7 9,7 13,2 13,4 13,9 14,6 20 11 28 15 SSE 1012,0 18 0 0,0
15.10.2018 02:00:00 14,8 9,7 13,3 13,7 14,1 14,6 18 10 26 14 S 1012,0 19 0 0,0
15.10.2018 01:00:00 15,5 9,8 13,8 14,0 14,2 14,6 16 8 25 14 S 1011,9 24 0 0,0
15.10.2018 00:00:00 16,5 9,3 14,7 14,3 14,4 14,6 18 10 31 17 S 1011,8 26 0 0,0
14.10.2018 23:00:00 16,8 9,8 15,3 14,7 14,5 14,6 22 12 32 17 SSE 1011,8 24 0 0,0
14.10.2018 22:00:00 16,7 10,0 15,4 15,0 14,7 14,6 24 13 36 19 SSE 1011,8 23 0 0,0
14.10.2018 21:00:00 16,8 10,5 15,6 15,4 14,8 14,6 26 14 37 20 SSE 1011,8 21 0 0,0
14.10.2018 20:00:00 18,4 10,3 17,0 15,8 14,9 14,6 23 13 35 19 SSE 1011,6 23 0 0,0
14.10.2018 19:00:00 18,6 10,3 17,3 16,4 15,0 14,6 27 14 45 25 SSE 1011,4 23 0 0,0
14.10.2018 18:00:00 19,7 10,0 18,5 17,1 15,0 14,6 26 14 41 22 SSE 1011,2 21 52 0,0
14.10.2018 17:00:00 20,7 10,0 20,2 17,8 14,8 14,6 21 11 36 19 SSE 1011,5 22 60 0,0
14.10.2018 16:00:00 20,4 10,0 20,7 18,3 14,6 14,5 23 12 37 20 SSE 1011,7 14 60 0,0
14.10.2018 15:00:00 19,8 10,2 20,6 18,6 14,3 14,5 24 13 41 22 SSE 1011,8 13 60 0,0
14.10.2018 14:00:00 18,8 9,8 20,2 18,5 14,0 14,5 27 14 42 23 SSE 1012,5 13 60 0,0
14.10.2018 13:00:00 17,4 9,7 19,2 17,8 13,7 14,5 26 14 40 21 SSE 1012,8 14 60 0,0
14.10.2018 12:00:00 16,9 9,6 18,7 16,6 13,5 14,5 20 11 33 18 SSE 1013,5 14 60 0,0
14.10.2018 11:00:00 15,8 9,5 16,9 15,0 13,4 14,5 26 14 39 21 SSE 1013,8 12 60 0,0
14.10.2018 10:00:00 15,3 9,7 15,7 14,0 13,4 14,5 25 14 40 21 SSE 1013,9 11 60 0,0
14.10.2018 09:00:00 14,5 9,5 14,2 13,1 13,5 14,5 19 11 36 19 SSE 1014,2 11 28 0,0
14.10.2018 08:00:00 14,1 9,5 12,7 13,0 13,7 14,5 22 12 39 21 SSE 1014,6 13 0 0,0
14.10.2018 07:00:00 14,4 9,5 12,9 13,3 13,8 14,5 22 12 41 22 SSE 1014,9 14 0 0,0
14.10.2018 06:00:00 15,2 9,0 13,8 13,5 14,0 14,5 26 14 42 23 SSE 1015,5 16 0 0,0
14.10.2018 05:00:00 15,6 9,2 14,0 13,7 14,2 14,5 21 11 38 21 SSE 1015,9 17 0 0,0
14.10.2018 04:00:00 15,3 9,6 13,5 13,9 14,3 14,5 14 8 30 16 SE 1016,6 19 0 0,0
14.10.2018 03:00:00 15,2 10,6 13,8 14,2 14,5 14,4 21 12 29 16 SSE 1017,1 17 0 0,0
14.10.2018 02:00:00 15,5 10,8 13,8 14,7 14,7 14,4 18 10 27 15 SSE 1017,6 18 0 0,0
14.10.2018 01:00:00 16,4 10,9 15,0 15,2 14,9 14,4 21 11 28 15 SSE 1017,5 19 0 0,0
14.10.2018 00:00:00 17,6 10,8 16,1 15,8 15,0 14,4 23 13 44 24 SSE 1017,9 23 0 0,0
13.10.2018 23:00:00 19,7 10,9 18,2 16,2 15,2 14,4 25 14 39 21 SSE 1018,4 26 0 0,0
13.10.2018 22:00:00 20,8 11,0 19,2 16,5 15,3 14,4 24 13 41 22 SSE 1018,6 33 0 0,0
13.10.2018 21:00:00 20,4 11,6 18,9 16,7 15,4 14,4 19 10 29 16 SSE 1018,9 36 0 0,0
13.10.2018 20:00:00 20,1 12,2 18,3 17,2 15,5 14,4 14 8 32 18 SSE 1019,1 55 0 0,0
13.10.2018 19:00:00 21,7 11,8 20,2 18,0 15,6 14,4 21 12 32 17 SSE 1019,2 54 0 0,0
13.10.2018 18:00:00 23,2 12,0 21,9 18,9 15,5 14,4 21 11 34 18 SSE 1019,1 54 55 0,0
13.10.2018 17:00:00 24,1 12,4 23,7 19,7 15,3 14,4 19 11 33 18 SSE 1019,4 46 60 0,0
13.10.2018 16:00:00 24,7 12,7 25,0 20,4 15,0 14,4 17 9 32 17 SSE 1019,9 30 60 0,0
13.10.2018 15:00:00 24,3 13,2 25,4 20,6 14,6 14,4 21 12 32 17 SSE 1020,4 20 60 0,0
13.10.2018 14:00:00 23,5 13,2 24,9 20,5 14,1 14,4 22 12 31 17 SSE 1020,8 39 60 0,0
13.10.2018 13:00:00 22,5 13,2 24,2 19,6 13,7 14,4 21 11 30 16 SSE 1021,5 19 60 0,0
13.10.2018 12:00:00 21,4 13,4 23,2 18,2 13,3 14,4 22 12 31 17 S 1021,8 19 60 0,0
13.10.2018 11:00:00 19,9 13,4 21,4 16,5 13,1 14,4 19 10 28 15 S 1021,9 23 60 0,0
13.10.2018 10:00:00 17,5 12,9 18,4 14,9 13,0 14,4 18 10 26 14 SSE 1022,0 23 60 0,0
13.10.2018 09:00:00 16,4 12,4 16,7 13,7 13,0 14,4 16 9 25 13 SSE 1022,0 25 30 0,0
13.10.2018 08:00:00 14,7 11,8 13,8 13,2 13,1 14,4 18 10 27 15 SSE 1021,9 18 0 0,0
13.10.2018 07:00:00 14,7 11,7 13,7 13,2 13,2 14,4 19 10 24 13 SSE 1021,8 18 0 0,0
13.10.2018 06:00:00 14,8 11,7 13,7 13,3 13,3 14,3 14 8 20 11 SSE 1021,8 18 0 0,0
13.10.2018 05:00:00 14,7 11,8 13,6 13,6 13,4 14,3 16 8 26 14 SSE 1021,6 14 0 0,0
13.10.2018 04:00:00 15,5 11,8 14,4 13,7 13,5 14,3 18 10 25 13 SSE 1021,6 16 0 0,0
13.10.2018 03:00:00 15,9 12,0 14,7 13,9 13,6 14,3 18 10 27 15 SSE 1021,5 17 0 0,0
13.10.2018 02:00:00 16,4 12,0 15,2 14,0 13,7 14,3 19 10 26 14 SSE 1021,5 18 0 0,0
13.10.2018 01:00:00 16,6 12,0 15,1 14,2 13,8 14,3 16 9 22 12 SSE 1021,6 22 0 0,0
13.10.2018 00:00:00 16,7 12,3 15,2 14,4 13,9 14,3 14 8 23 12 SSE 1021,8 21 0 0,0
12.10.2018 23:00:00 17,0 12,4 15,7 14,5 14,1 14,3 18 10 24 13 SSE 1021,9 22 0 0,0
12.10.2018 22:00:00 17,6 12,6 16,1 14,6 14,2 14,3 17 9 23 12 SSE 1022,0 24 0 0,0
12.10.2018 21:00:00 16,9 11,9 14,6 14,9 14,4 14,3 10 5 15 8 SSE 1021,8 34 0 0,0
12.10.2018 20:00:00 17,0 11,8 14,9 15,5 14,6 14,3 11 6 16 9 SE 1021,8 28 0 0,0
12.10.2018 19:00:00 18,5 12,1 16,4 16,3 14,6 14,3 10 5 15 8 SSE 1021,7 35 0 0,0

tt = temperature
td = dewpoint
tt 5cm = temperature 5cm
tt -5cm = temperature -5cm
tt -20cm = temperature -20cm
tt -100cm = temperature -100cm
ff = wind speed
fx = gusts
dd = wind direction
ppp = reduced air pressure
vv = visibility
sd = sunshine duration
rr = precipitation

Next stations